Weather reports worldwide

Advertisment
Coleshill, United Kingdom (3535): temperature & dewpoint: 10.12.2017 05:00:00 - 16.12.2017 05:00:00 (GMT)Coleshill, United Kingdom (3535): temperature -20cm & temperature -100cm: 10.12.2017 05:00:00 - 16.12.2017 05:00:00 (GMT)Coleshill, United Kingdom (3535): wind speed & gusts: 10.12.2017 05:00:00 - 16.12.2017 05:00:00 (GMT)Coleshill, United Kingdom (3535): wind direction: 10.12.2017 05:00:00 - 16.12.2017 05:00:00 (GMT)Coleshill, United Kingdom (3535): reduced air pressure: 10.12.2017 05:00:00 - 16.12.2017 05:00:00 (GMT)Coleshill, United Kingdom (3535): visibility: 10.12.2017 05:00:00 - 16.12.2017 05:00:00 (GMT)Coleshill, United Kingdom (3535): precipitation: 10.12.2017 05:00:00 - 16.12.2017 05:00:00 (GMT)
Date & Time tt [°C] td [°C] tt -20cm [°C] tt -100cm [°C] ff [km/h] ff [kn] fx [km/h] fx [kn] dd ppp [hPa] vv [km] rr [mm]
16.12.2017 05:00:00 - - - - - - - - - - - -
16.12.2017 04:00:00 -0,7 -1,5 - - 5 3 - - W 1014,8 14 0,0
16.12.2017 03:00:00 0,3 -0,7 - - 5 3 - - WNW 1014,3 19 0,0
16.12.2017 02:00:00 0,1 -1,3 - - 8 4 - - NW 1013,7 22 0,0
16.12.2017 01:00:00 0,6 -1,1 - - 8 4 - - WNW 1013,0 22 0,0
16.12.2017 00:00:00 0,7 -1,0 - - 8 4 - - NW 1012,7 24 0,0
15.12.2017 23:00:00 0,9 -0,8 - - 13 7 - - NW 1012,2 19 0,0
15.12.2017 22:00:00 1,7 -0,3 - - 16 9 - - WNW 1011,5 24 0,0
15.12.2017 21:00:00 2,2 -0,2 - - 15 8 - - NW 1010,8 28 0,0
15.12.2017 20:00:00 2,7 0,3 - - 21 11 - - NW 1010,1 30 0,0
15.12.2017 19:00:00 3,3 0,8 - - 22 12 - - NW 1009,0 23 0,0
15.12.2017 18:00:00 3,7 1,4 - - 22 12 - - NW 1007,8 24 0,0
15.12.2017 17:00:00 4,1 1,7 - - 21 11 - - NW 1006,7 45 0,0
15.12.2017 16:00:00 3,9 1,7 - - 21 11 - - NW 1005,6 50 0,0
15.12.2017 15:00:00 4,1 1,7 - - 18 10 - - NW 1004,1 45 0,0
15.12.2017 14:00:00 3,8 1,1 - - 22 12 - - NW 1003,0 45 0,0
15.12.2017 13:00:00 3,7 1,0 - - 21 11 - - NNW 1001,8 45 0,0
15.12.2017 12:00:00 3,3 0,7 - - 15 8 - - NNW 1001,2 35 0,8
15.12.2017 11:00:00 2,9 0,4 - - 21 11 - - NW 1000,4 30 1,4
15.12.2017 10:00:00 2,3 0,3 - - 22 12 - - NW 999,4 35 0,2
15.12.2017 09:00:00 1,7 0,2 4,5 7,2 22 12 - - NW 997,9 30 0,0
15.12.2017 08:00:00 1,3 0,1 - - 18 10 - - NW 996,2 22 0,0
15.12.2017 07:00:00 1,2 0,4 - - 22 12 - - NW 994,8 15 0,0
15.12.2017 06:00:00 1,0 0,7 - - 13 7 - - NW 993,1 25 0,0
15.12.2017 05:00:00 0,2 0,1 - - 11 6 - - NNW 991,4 12 0,0
15.12.2017 04:00:00 0,3 -0,4 - - 13 7 - - N 990,0 0,5 2,8
15.12.2017 03:00:00 3,6 2,7 - - 11 6 - - SSW 988,3 12 0,2
15.12.2017 02:00:00 2,6 1,8 - - 9 5 - - SSW 988,4 23 0,0
15.12.2017 01:00:00 2,4 1,2 - - 8 4 - - SW 988,8 23 0,2
15.12.2017 00:00:00 3,0 1,3 - - 11 6 - - SW 988,4 35 0,0
14.12.2017 23:00:00 2,5 1,1 - - 9 5 - - SW 988,2 30 0,0
14.12.2017 22:00:00 2,9 1,8 - - 13 7 - - WSW 988,2 30 0,0
14.12.2017 21:00:00 3,0 1,9 - - 11 6 - - WSW 987,8 24 0,0
14.12.2017 20:00:00 3,6 2,4 - - 13 7 - - W 987,4 19 0,6
14.12.2017 19:00:00 3,8 1,8 - - 8 4 - - SW 986,5 10 0,0
14.12.2017 18:00:00 3,8 1,3 - - 9 5 - - SW 986,1 20 0,0
14.12.2017 17:00:00 3,8 1,1 - - 11 6 - - SSW 986,0 20 0,0
14.12.2017 16:00:00 4,2 1,1 - - 13 7 - - SW 986,4 20 0,0
14.12.2017 15:00:00 4,8 1,0 - - 15 8 - - SW 986,5 21 0,0
14.12.2017 14:00:00 5,6 1,3 - - 15 8 - - SW 987,1 35 0,0
14.12.2017 13:00:00 5,4 1,8 - - 15 8 - - SW 987,9 22 0,0
14.12.2017 12:00:00 4,9 1,4 - - 15 8 - - SW 988,1 23 0,0
14.12.2017 11:00:00 3,9 1,1 - - 15 8 - - SSW 989,3 35 0,0
14.12.2017 10:00:00 3,4 1,1 - - 18 10 - - SW 989,5 35 0,0
14.12.2017 09:00:00 2,3 0,5 4,7 7,5 11 6 - - SW 989,6 21 0,0
14.12.2017 08:00:00 2,5 0,4 - - 15 8 - - SW 989,7 24 0,0
14.12.2017 07:00:00 2,5 0,5 - - 13 7 - - SSW 990,0 19 0,0
14.12.2017 06:00:00 3,2 1,0 - - 13 7 - - SW 990,1 21 0,0
14.12.2017 05:00:00 2,7 1,0 - - 13 7 - - SW 990,3 24 0,0
14.12.2017 04:00:00 3,2 1,0 - - 18 10 - - WSW 990,1 35 0,0
14.12.2017 03:00:00 3,4 1,6 - - 16 9 - - WSW 990,2 12 0,2
14.12.2017 02:00:00 2,9 1,1 - - 16 9 - - WSW 990,1 35 0,0
14.12.2017 01:00:00 2,3 0,5 - - 13 7 - - SW 990,4 27 0,0
14.12.2017 00:00:00 2,1 0,2 - - 15 8 - - WSW 990,3 30 0,0
13.12.2017 23:00:00 2,4 0,6 - - 21 11 - - W 989,8 40 0,0
13.12.2017 22:00:00 2,2 1,0 - - 21 11 46 25 W 988,7 50 0,6
13.12.2017 21:00:00 1,8 1,3 - - 15 8 - - SW 987,6 6 0,8
13.12.2017 20:00:00 2,3 1,2 - - 11 6 - - SW 988,0 5 1,2
13.12.2017 19:00:00 2,8 0,8 - - 16 9 - - SSW 988,8 20 0,0
13.12.2017 18:00:00 3,2 0,9 - - 9 5 - - SW 989,8 25 0,0
13.12.2017 17:00:00 2,9 0,8 - - 11 6 - - SW 990,8 30 0,0
13.12.2017 16:00:00 4,0 1,5 - - 13 7 - - WSW 990,7 30 0,0
13.12.2017 15:00:00 4,8 2,9 - - 21 11 57 31 W 990,3 45 0,8
13.12.2017 14:00:00 6,0 5,6 - - 15 8 - - SW 990,1 3,1 1,4
13.12.2017 13:00:00 5,9 5,4 - - 22 12 - - S 990,6 17 0,0
13.12.2017 12:00:00 5,7 5,1 - - 22 12 - - SSW 992,5 11 0,0
13.12.2017 11:00:00 4,7 3,9 - - 21 11 - - S 994,6 11 0,0
13.12.2017 10:00:00 4,0 3,2 - - 13 7 - - S 996,1 13 0,0
13.12.2017 09:00:00 3,9 3,1 4,7 7,7 18 10 - - S 997,3 12 1,0
13.12.2017 08:00:00 3,9 3,3 - - 18 10 - - S 998,1 11 0,8
13.12.2017 07:00:00 3,9 3,3 - - 15 8 - - SSW 999,1 10 0,4
13.12.2017 06:00:00 3,4 3,3 - - 11 6 - - SW 999,6 9 0,4
13.12.2017 05:00:00 3,1 3,1 - - 8 4 - - SW 1000,2 8 1,0
13.12.2017 04:00:00 2,8 2,8 - - 4 2 - - SW 1000,4 3,7 1,0
13.12.2017 03:00:00 3,0 2,9 - - 8 4 - - WSW 1000,7 1,1 1,8
13.12.2017 02:00:00 3,6 3,5 - - 9 5 - - WSW 1000,7 5 3,0
13.12.2017 01:00:00 3,5 3,4 - - 9 5 - - SSW 1000,9 4,0 5,0
13.12.2017 00:00:00 2,7 2,5 - - 15 8 - - S 1001,1 3,9 0,2
12.12.2017 23:00:00 2,6 2,3 - - 16 9 - - S 1001,9 11 0,0
12.12.2017 22:00:00 2,0 1,6 - - 16 9 - - S 1002,8 10 0,0
12.12.2017 21:00:00 1,6 1,3 - - 16 9 - - SSE 1004,0 6 0,0
12.12.2017 20:00:00 1,1 0,6 - - 11 6 - - S 1005,6 3,8 0,0
12.12.2017 19:00:00 0,7 0,2 - - 11 6 - - S 1006,2 11 0,0
12.12.2017 18:00:00 0,2 -0,2 - - 13 7 - - S 1006,6 11 0,0
12.12.2017 17:00:00 0,2 -0,4 - - 13 7 - - S 1007,3 11 0,0
12.12.2017 16:00:00 -0,2 -1,1 - - 11 6 - - S 1007,7 11 0,0
12.12.2017 15:00:00 0,6 -0,7 - - 11 6 - - S 1007,7 17 0,0
12.12.2017 14:00:00 0,7 -1,0 - - 11 6 - - S 1008,2 23 0,0
12.12.2017 13:00:00 -0,4 -1,2 - - 9 5 - - S 1008,0 18 0,0
12.12.2017 12:00:00 -0,3 -0,8 - - 9 5 - - SSE 1007,8 15 0,0
12.12.2017 11:00:00 -2,5 -2,8 - - 5 3 - - S 1008,9 12 0,0
12.12.2017 10:00:00 -4,8 -5,3 - - 11 6 - - S 1008,3 7 0,0
12.12.2017 09:00:00 -6,1 -6,8 5,0 7,9 5 3 - - S 1007,9 7 0,0
12.12.2017 08:00:00 -6,4 -7,1 - - 5 3 - - SSE 1007,5 8 0,0
12.12.2017 07:00:00 -4,7 -5,1 - - 5 3 - - WSW 1006,9 8 0,0
12.12.2017 06:00:00 -6,6 -7,5 - - 5 3 - - S 1005,5 6 0,0
12.12.2017 05:00:00 -5,4 -5,8 - - 4 2 - - S 1004,8 5 0,0
12.12.2017 04:00:00 -4,8 -5,2 - - 2 1 - - NW 1004,5 8 0,0
12.12.2017 03:00:00 -5,8 -6,3 - - 0 0 - - N 1003,8 8 0,0
12.12.2017 02:00:00 -5,6 -6,2 - - 2 1 - - WNW 1002,5 9 0,0
12.12.2017 01:00:00 -5,2 -5,5 - - 9 5 - - W 1001,2 11 0,0
12.12.2017 00:00:00 -5,6 -6,1 - - 4 2 - - WSW 1000,4 13 0,0
11.12.2017 23:00:00 -4,9 -5,4 - - 2 1 - - W 999,4 15 0,0
11.12.2017 22:00:00 -5,3 -6,1 - - 4 2 - - NNE 998,8 15 0,0
11.12.2017 21:00:00 -5,0 -5,8 - - 4 2 - - WNW 997,6 13 0,0
11.12.2017 20:00:00 -3,9 -4,8 - - 2 1 - - NW 996,0 16 0,0
11.12.2017 19:00:00 -3,2 -4,5 - - 8 4 - - N 994,5 24 0,0
11.12.2017 18:00:00 -1,4 -3,2 - - 13 7 - - NW 992,9 35 0,0
11.12.2017 17:00:00 -2,4 -5,4 - - 9 5 - - NNW 992,2 40 0,0
11.12.2017 16:00:00 -0,2 -3,3 - - 15 8 - - NW 990,8 40 0,0
11.12.2017 15:00:00 0,3 -2,4 - - 18 10 - - NW 990,1 30 0,0
11.12.2017 14:00:00 1,2 -1,4 - - 22 12 - - NNW 989,3 40 0,0
11.12.2017 13:00:00 0,1 -1,7 - - 16 9 - - NNW 988,5 30 0,0
11.12.2017 12:00:00 -0,8 -2,0 - - 15 8 - - NNW 987,8 35 0,0
11.12.2017 11:00:00 -1,3 -2,3 - - 16 9 - - NNW 987,1 40 0,0
11.12.2017 10:00:00 -1,4 -2,1 - - 16 9 - - N 986,5 30 0,0
11.12.2017 09:00:00 -1,5 -2,1 5,2 8,2 15 8 - - N 985,5 30 0,0
11.12.2017 08:00:00 -1,2 -1,7 - - 18 10 - - N 984,9 22 0,0
11.12.2017 07:00:00 -1,1 -1,4 - - 15 8 - - N 984,1 18 0,0
11.12.2017 06:00:00 -0,7 -0,8 - - 16 9 - - N 982,8 10 0,0
11.12.2017 05:00:00 -0,5 -0,6 - - 18 10 - - NNE 982,4 7 0,0
11.12.2017 04:00:00 -0,5 -0,6 - - 15 8 - - N 983,0 3,1 0,0
11.12.2017 03:00:00 -0,3 -0,4 - - 15 8 - - NNE 983,7 5 0,0
11.12.2017 02:00:00 -0,3 -0,4 - - 11 6 - - N 983,2 3,9 0,0
11.12.2017 01:00:00 -0,5 -0,6 - - 11 6 - - NNE 982,8 5 0,0
11.12.2017 00:00:00 0,1 0,0 - - 11 6 - - NNE 982,5 3,0 0,0
10.12.2017 23:00:00 0,0 0,0 - - 8 4 - - NNE 982,3 5 0,0
10.12.2017 22:00:00 0,0 0,0 - - 11 6 - - NNE 981,8 5 0,0
10.12.2017 21:00:00 0,0 0,0 - - 11 6 - - N 981,3 3,7 0,0
10.12.2017 20:00:00 0,0 0,0 - - 9 5 - - N 980,8 1,6 0,0
10.12.2017 19:00:00 0,0 0,0 - - 9 5 - - N 980,3 1,6 0,0
10.12.2017 18:00:00 0,0 -0,1 - - 9 5 - - N 979,8 2,0 0,0
10.12.2017 17:00:00 -0,1 -0,1 - - 9 5 - - N 979,3 1,8 0,0
10.12.2017 16:00:00 -0,1 -0,3 - - 9 5 - - NNW 979,0 1,5 0,0
10.12.2017 15:00:00 0,0 -0,2 - - 11 6 - - N 978,3 2,9 0,0
10.12.2017 14:00:00 0,1 -0,1 - - 11 6 - - N 977,8 2,1 0,0
10.12.2017 13:00:00 0,2 -0,1 - - 15 8 - - N 977,2 7 0,0
10.12.2017 12:00:00 0,2 -0,2 - - 16 9 - - NNE 976,3 4,7 0,0
10.12.2017 11:00:00 -0,2 -0,5 - - 21 11 - - NNE 976,0 3,2 0,0
10.12.2017 10:00:00 -0,5 -0,7 - - 22 12 - - NE 976,2 1,3 0,0
10.12.2017 09:00:00 -0,4 -0,6 5,4 8,5 21 11 - - NE 977,5 0,7 0,0
10.12.2017 08:00:00 -0,3 -0,6 - - 21 11 - - ENE 979,6 1,0 0,0
10.12.2017 07:00:00 -0,3 -0,5 - - 15 8 - - E 981,6 0,6 0,0
10.12.2017 06:00:00 -0,3 -0,6 - - 13 7 - - E 985,1 1,0 0,0
10.12.2017 05:00:00 -0,3 -1,1 - - 11 6 - - ESE 988,2 1,6 0,0

tt = temperature
td = dewpoint
tt -20cm = temperature -20cm
tt -100cm = temperature -100cm
ff = wind speed
fx = gusts
dd = wind direction
ppp = reduced air pressure
vv = visibility
rr = precipitation

Next stations